Wind_Speed
5 7 9 10 12 15 17 19 21 22 24 24 23 20 18 17 14 15 18 17 4 3 3 5 5 3 2 2 1 4 3 4 4 4 3 3 1 3 4 4 5 3 5 3 3 3 4 12 19 4 4 12 14 16
4 6 7 9 11 13 16 18 20 22 22 22 21 19 16 16 13 17 10 16 9 7 2 4 7 4 7 3 3 3 3 1 1 1 1 1 2 3 3 3 4 4 1 4 4 4 11 15 19 13 13 15 19 12
3 5 7 8 10 13 15 17 19 20 21 21 19 16 14 12 11 13 18 22 6 6 7 5 4 4 6 6 8 3 2 2 2 2 1 0 3 1 2 3 4 4 4 3 6 5 15 20 19 18 13 6 16 17
2 4 6 7 10 12 14 16 18 20 21 20 17 14 11 9 8 10 11 17 9 5 4 4 7 3 3 4 8 7 4 6 4 2 2 1 2 1 2 4 3 3 8 6 5 5 15 15 23 15 17 14 19 20
2 3 6 8 10 12 14 16 17 20 21 18 16 12 9 8 6 6 8 11 11 3 4 2 5 10 8 8 12 12 10 5 2 2 2 1 2 3 3 3 3 6 6 5 3 9 5 9 16 17 13 16 16 17
1 3 5 8 11 12 14 16 18 20 20 16 14 11 6 8 6 0 5 8 9 5 3 2 3 1 3 7 11 13 8 3 3 3 1 2 2 2 3 3 3 5 8 12 5 7 7 9 12 15 13 13 16 14
0 3 6 9 12 13 14 16 18 20 19 14 12 8 5 6 8 5 3 3 4 4 3 3 3 4 3 2 2 2 4 2 2 2 1 1 2 1 1 2 5 5 6 7 7 7 6 12 8 17 19 17 20 20
1 4 7 10 12 13 15 17 19 20 17 12 10 4 4 5 4 6 6 4 3 3 3 3 3 3 9 3 3 4 2 1 3 1 1 2 3 1 2 11 8 6 3 5 6 9 7 7 9 11 18 16 12 11
2 5 8 11 12 13 15 17 19 20 11 10 7 5 3 4 5 3 3 3 4 4 3 3 2 3 8 3 1 3 1 3 1 2 2 1 2 3 4 12 10 6 3 1 4 4 7 7 9 9 10 11 10 8
3 6 8 10 11 12 14 18 20 19 7 5 4 2 3 5 4 2 1 4 5 6 4 3 0 2 2 3 3 3 1 2 2 2 2 2 2 6 11 13 9 6 4 4 3 3 4 5 7 7 6 8 10 10
4 6 8 10 11 11 14 17 20 15 7 4 7 2 4 2 2 2 2 3 3 4 3 2 1 2 2 2 2 1 2 2 3 3 2 4 5 10 16 13 13 11 3 4 4 2 2 2 3 4 7 12 16 17
5 7 9 10 9 11 13 16 18 17 8 5 3 3 3 4 3 5 3 3 5 1 4 2 3 2 3 1 1 1 2 2 3 3 3 5 4 14 14 11 10 14 6 1 3 4 2 1 3 8 9 11 13 11
6 8 8 8 10 11 12 13 13 13 6 2 2 2 4 3 8 4 5 4 3 4 3 3 4 1 3 1 2 2 4 1 1 3 2 3 10 9 14 7 5 11 14 11 2 2 2 1 3 7 9 8 11 14
7 6 6 10 11 11 12 12 12 10 2 3 3 5 3 3 1 0 1 2 3 2 3 2 2 1 2 3 1 4 2 3 3 4 2 4 10 11 10 8 4 5 5 7 10 3 2 2 6 6 6 9 10 10
7 4 7 12 13 12 11 11 10 4 2 3 4 3 2 1 0 1 2 2 3 1 1 2 2 1 2 2 3 3 4 4 3 2 3 6 12 10 9 8 10 12 12 11 11 4 2 5 8 9 9 8 8 9
7 4 8 14 13 10 10 9 6 3 3 3 4 3 2 0 1 1 2 3 2 1 0 1 2 2 4 2 4 4 3 4 2 3 4 7 9 9 9 13 9 6 6 8 12 12 3 2 5 8 8 8 9 8
5 5 12 13 11 8 8 4 4 4 3 3 2 1 2 1 2 2 2 2 2 1 1 1 3 2 1 3 3 1 1 3 3 6 4 5 6 10 16 15 11 13 8 7 4 9 13 5 1 3 4 6 7 7
2 9 10 12 11 6 4 6 3 3 4 1 2 3 1 2 2 3 2 3 1 1 2 2 2 4 2 2 0 2 3 3 4 4 5 13 13 13 18 21 20 11 7 7 7 7 10 16 15 12 9 11 12 11
6 6 7 11 11 5 4 4 4 3 0 1 1 1 1 2 2 4 1 4 7 5 3 3 4 2 2 2 3 3 3 2 3 5 9 9 8 12 17 19 18 20 15 12 14 12 10 12 10 13 13 7 10 12
4 5 8 8 7 3 3 3 2 3 1 2 1 1 0 1 2 2 3 2 2 2 3 3 2 3 3 3 5 3 7 8 2 3 3 10 9 12 14 15 14 16 17 17 16 16 16 15 14 12 11 6 7 5
3 6 5 7 4 4 2 1 2 2 1 1 0 1 1 2 2 3 3 2 3 2 1 1 3 4 10 12 12 14 15 7 4 4 3 2 6 10 13 12 12 13 13 13 13 14 15 16 13 13 11 13 10 8
5 5 4 3 3 3 2 0 2 1 2 1 1 1 1 1 2 2 0 4 1 2 3 3 2 4 6 8 6 3 5 4 2 4 5 5 4 5 8 10 11 13 10 12 14 14 14 15 13 11 12 10 6 2
4 4 3 3 1 4 4 1 2 1 1 2 2 1 1 1 2 3 2 2 3 4 5 5 7 10 13 11 10 4 1 5 1 4 4 6 8 6 7 9 8 13 13 11 13 16 15 15 13 10 11 10 6 4
3 3 2 1 2 2 2 1 0 1 1 1 0 2 1 2 1 2 1 2 3 2 2 2 1 4 3 0 4 5 6 2 4 4 6 6 6 5 5 9 9 11 11 12 15 15 14 16 14 9 9 11 13 12
3 4 3 4 1 1 2 1 1 3 1 0 1 2 1 3 3 1 2 2 1 1 2 1 4 7 2 1 2 4 4 4 1 4 2 5 5 3 1 4 7 8 10 12 15 18 18 13 13 14 13 11 12 12
1 2 3 2 1 1 1 2 1 1 1 2 1 1 1 2 4 1 2 3 2 2 3 2 2 1 2 2 4 5 5 7 4 6 8 4 3 3 2 5 6 6 12 11 14 15 12 12 9 11 12 11 10 9
1 2 3 2 2 3 3 1 1 1 1 1 1 1 1 1 1 2 2 9 7 9 12 6 5 7 4 9 9 6 4 5 4 10 11 7 6 5 6 8 6 5 11 11 13 12 5 8 11 12 14 15 15 15
3 1 3 2 2 1 2 0 1 1 1 2 1 1 1 4 4 3 7 7 12 7 3 3 5 6 6 5 4 8 13 16 17 13 9 5 3 3 6 8 9 4 7 10 11 9 9 10 11 11 11 13 14 14
2 2 2 1 2 1 2 2 1 2 3 2 3 2 3 3 3 5 5 6 4 7 7 5 6 14 9 5 8 11 12 13 6 1 2 4 7 6 10 8 7 9 7 5 9 9 8 8 9 10 9 10 11 12
2 1 3 2 3 3 3 5 3 4 7 5 4 1 2 3 6 8 8 7 6 7 6 4 3 8 10 12 12 10 8 6 6 5 2 5 7 8 8 7 8 8 6 2 4 4 5 5 6 8 9 10 11 12
1 2 2 1 2 2 3 3 3 3 2 3 4 3 4 3 4 6 10 8 8 5 6 5 5 7 13 12 11 9 5 3 3 4 6 5 5 6 7 6 6 5 3 4 4 4 4 6 8 9 10 10 10 10
1 2 3 1 2 3 4 1 2 2 2 1 2 1 2 2 2 4 3 4 4 7 7 7 8 9 9 9 7 3 2 5 3 3 4 5 7 9 8 8 9 10 5 5 3 5 4 6 8 9 9 9 9 9
1 1 1 0 2 2 2 1 1 2 1 2 3 4 5 5 4 2 5 2 1 6 7 9 9 8 7 6 5 5 6 6 4 3 4 4 4 7 9 11 11 9 6 6 6 4 5 5 7 8 8 7 7 8
Wind_Direction
52 40 33 32 31 27 24 22 20 19 19 18 18 23 31 39 50 47 35 28 70 104 310 42 28 49 56 75 109 288 32 8 15 45 42 343 319 300 325 268 282 298 333 316 313 316 330 337 332 322 274 297 301 304
56 39 34 32 27 22 20 17 17 17 15 14 16 22 32 40 47 45 27 38 69 75 161 38 64 86 52 65 143 12 155 290 179 74 42 336 311 332 318 290 320 342 135 304 294 283 295 311 305 305 295 287 299 286
57 37 31 26 20 17 14 12 13 11 11 11 11 18 30 42 44 44 39 28 56 54 31 48 0 26 25 55 47 104 296 274 121 77 96 233 290 190 285 266 295 293 41 275 336 333 327 318 322 299 291 339 340 66
57 34 24 15 11 8 6 8 8 7 7 6 7 17 28 37 42 38 54 36 44 86 104 288 353 26 69 90 64 73 113 81 89 57 58 18 287 242 284 292 286 314 317 318 261 316 309 343 342 36 70 64 52 64
45 23 10 3 0 359 0 3 2 3 3 3 5 15 29 24 32 61 66 44 24 70 157 258 329 24 114 98 66 77 89 72 63 73 50 3 285 295 300 292 337 339 341 339 317 2 338 316 13 25 42 65 64 66
29 5 358 357 355 354 356 357 358 359 359 359 2 13 34 33 29 88 39 39 48 46 85 77 332 66 117 87 64 62 81 88 83 76 0 284 261 331 342 335 329 352 19 4 15 7 336 2 11 15 40 74 82 78
329 353 354 353 353 351 353 353 354 356 355 357 1 16 44 33 31 46 146 18 36 19 71 28 352 341 337 30 40 38 62 62 93 122 331 277 283 60 278 333 291 328 7 20 17 313 10 17 14 23 27 47 66 66
336 345 345 349 348 351 352 352 355 355 355 358 355 22 42 27 49 59 40 40 24 69 65 71 304 12 9 0 344 9 37 41 359 22 313 352 312 332 18 333 320 306 343 32 11 0 359 323 26 22 37 33 44 47
325 337 345 346 349 352 352 353 355 354 358 3 31 87 75 32 32 28 98 61 27 61 100 71 72 288 353 346 303 342 48 34 294 31 17 23 300 10 342 335 332 329 326 38 25 348 336 1 1 16 34 32 47 40
326 338 345 346 350 352 354 353 355 358 14 41 30 42 25 10 19 90 298 13 23 4 35 73 51 314 39 7 325 351 21 36 28 290 14 29 291 345 343 333 330 317 6 129 142 26 10 359 8 13 35 48 64 67
332 343 344 348 352 356 356 354 359 8 18 38 26 65 345 352 327 28 32 56 348 30 10 318 174 303 319 4 294 150 296 318 47 333 62 353 356 339 327 334 339 345 329 62 88 134 241 300 353 37 43 66 63 60
336 344 348 349 355 354 354 356 357 15 1 336 306 340 359 31 37 62 9 5 46 15 321 333 276 238 296 310 321 304 1 31 37 329 37 356 301 310 339 333 336 349 357 254 129 135 173 213 82 85 85 85 81 87
337 346 351 1 352 349 352 355 355 351 2 35 38 47 44 344 37 44 344 332 355 332 326 334 334 297 330 7 274 343 67 125 11 48 55 281 292 330 334 355 351 354 10 10 286 163 184 349 55 120 114 113 102 105
342 348 6 356 347 348 352 353 346 348 26 61 51 20 89 358 42 304 281 305 266 220 288 291 277 299 303 342 330 56 2 64 41 30 21 294 313 326 309 339 293 300 343 345 16 230 317 2 55 72 139 117 104 104
345 344 350 352 351 351 354 352 351 40 54 65 61 45 49 81 88 223 231 308 256 226 260 327 307 354 309 22 29 24 34 54 52 337 264 303 315 318 312 336 349 38 69 48 342 66 54 77 92 88 112 124 119 124
353 349 343 347 354 1 1 2 22 40 69 68 52 55 342 7 307 268 243 261 244 225 338 251 328 30 31 46 39 14 47 32 288 253 273 310 316 321 325 345 7 63 56 58 26 5 20 87 136 135 131 138 149 147
8 2 349 354 358 359 8 10 13 48 71 57 19 52 197 231 238 269 225 255 266 352 333 56 51 31 29 47 43 45 128 227 252 295 292 289 299 313 343 20 32 46 48 51 72 37 16 358 197 192 209 201 194 197
330 349 355 1 5 5 7 20 47 76 60 42 90 271 234 213 275 295 279 314 178 86 39 95 126 37 60 80 291 247 260 272 257 268 287 320 357 35 45 42 41 33 41 25 13 31 45 17 8 357 299 251 232 234
349 12 15 4 5 358 8 22 36 93 149 227 270 311 206 268 270 291 261 56 76 97 99 53 80 99 132 234 222 259 253 252 286 310 309 360 37 54 51 50 42 41 41 32 26 20 6 1 6 358 349 331 236 260
32 25 7 8 4 4 33 359 29 100 147 249 51 354 174 227 293 31 6 26 64 72 54 70 175 200 197 230 214 241 266 277 290 325 324 12 44 55 54 53 47 42 49 53 47 39 26 26 22 9 15 31 37 360
35 15 8 8 2 33 98 350 23 181 154 107 259 71 317 4 17 357 351 9 59 47 36 223 215 235 230 261 279 289 300 301 217 205 213 346 63 59 48 39 42 45 38 27 21 21 22 17 7 22 24 39 44 21
9 4 355 358 1 15 23 201 165 297 84 221 30 83 59 344 297 286 233 50 47 249 200 193 242 267 287 291 308 325 309 204 66 113 125 113 106 65 44 32 35 33 33 23 12 358 351 359 4 18 6 2 346 299
13 3 345 338 64 40 265 339 44 13 109 286 39 0 290 275 234 131 57 207 244 235 225 241 265 260 248 264 282 312 312 203 101 71 140 125 144 100 64 37 36 34 25 17 10 10 5 358 0 5 8 20 22 29
7 6 14 344 122 257 344 309 179 62 68 45 202 264 265 291 334 73 197 247 252 271 229 299 293 120 91 241 238 247 206 194 108 82 171 147 132 149 59 32 34 36 32 6 356 359 0 4 10 19 6 21 19 12
53 319 88 314 265 357 277 296 76 41 303 222 282 327 323 76 309 271 224 278 260 271 300 46 77 100 128 11 300 278 240 231 120 102 150 165 128 135 9 6 16 20 15 9 7 7 4 360 18 33 34 28 25 21
108 237 139 221 313 152 348 46 87 253 258 284 292 309 41 141 194 273 338 334 324 283 278 183 196 97 360 330 291 312 301 197 147 110 134 129 101 78 30 2 355 12 9 13 6 359 0 4 15 30 32 19 20 13
337 268 232 246 142 109 38 356 76 73 313 352 321 331 28 245 297 259 243 165 200 226 275 278 277 246 289 315 319 344 158 176 168 138 133 119 99 67 39 24 359 358 10 7 2 355 16 40 47 61 63 56 52 61
246 252 165 202 86 110 127 254 271 220 192 242 37 322 265 194 227 228 225 240 240 252 308 317 329 334 338 26 26 148 141 140 139 134 125 104 83 33 11 3 21 353 13 15 9 35 91 96 82 80 72 64 62 65
264 264 114 101 76 101 190 192 240 242 178 134 155 243 253 226 231 211 215 221 253 278 278 322 80 123 106 97 129 139 133 147 154 80 332 310 333 335 348 351 20 32 34 72 62 77 71 82 72 75 76 73 70 69
279 59 109 125 147 211 243 178 207 209 192 192 196 285 296 265 268 275 279 273 277 257 262 225 206 180 152 147 133 119 111 83 58 41 320 306 318 327 338 347 0 16 23 92 91 97 98 69 44 43 54 59 56 56
328 50 75 97 213 252 233 272 242 224 216 202 200 170 224 269 285 270 257 262 265 247 207 195 188 169 176 174 171 157 153 153 89 34 6 353 358 359 356 3 13 9 20 149 119 130 102 68 55 50 51 51 48 45
73 131 123 32 286 280 302 214 233 216 249 194 260 207 334 32 284 281 323 259 248 184 172 180 175 170 175 175 178 185 198 178 153 60 40 61 58 43 50 54 50 49 93 119 116 136 89 62 52 47 45 42 38 34
93 116 136 196 339 321 286 124 283 288 275 259 250 202 196 177 213 232 38 32 261 234 225 194 189 185 186 191 191 202 200 183 155 94 90 105 80 65 60 50 40 39 47 78 112 104 94 61 47 35 28 24 22 21
Height
902 902 901 899 897 895 893 890 887 884 880 876 872 869 866 863 860 859 860 857 857 865 867 866 867 869 871 874 881 873 875 872 874 881 880 883 880 874 873 860 852 853 850 843 835 826 817 805 800 800 797 787 782 778
903 903 902 900 899 898 895 893 890 886 883 880 876 872 869 867 865 864 863 861 860 861 869 868 868 868 869 869 873 877 878 879 878 879 886 884 885 883 877 873 851 856 849 843 838 835 820 816 808 799 793 786 776 775
904 904 903 902 901 899 897 895 892 889 885 881 878 875 872 870 869 868 867 864 863 866 870 871 872 872 871 871 871 877 878 874 875 876 880 882 882 884 875 868 861 846 847 845 843 828 824 816 807 789 782 784 773 764
905 905 905 904 902 901 899 896 893 890 886 883 880 877 875 873 872 871 871 871 869 874 882 880 874 874 874 873 872 872 873 875 877 879 882 883 882 879 868 864 861 857 854 844 837 831 827 815 810 788 786 793 784 784
906 906 906 905 903 901 899 896 894 891 887 884 881 878 876 875 874 874 874 874 874 877 884 882 877 877 876 875 875 873 875 878 882 884 883 882 880 877 872 868 862 862 854 846 841 844 843 836 821 810 802 800 800 798
907 907 906 905 903 901 899 896 894 890 887 884 881 879 877 876 875 875 876 877 876 876 881 885 881 880 879 878 877 877 878 880 884 885 886 884 880 880 877 871 873 864 860 857 848 851 845 835 828 822 816 813 811 809
907 907 907 905 904 901 899 896 893 890 886 883 881 879 878 878 877 877 881 881 879 879 882 887 889 880 880 879 879 878 880 882 882 885 884 883 879 879 880 889 866 863 862 861 856 850 846 840 837 830 825 822 820 817
908 907 907 905 903 901 898 895 892 888 884 882 880 880 879 879 879 880 881 880 881 880 883 893 893 886 883 886 884 880 883 883 883 884 882 881 879 877 884 872 867 862 861 861 861 855 851 846 841 837 833 830 827 826
908 907 906 905 903 901 898 894 891 887 883 882 880 879 881 881 882 884 883 883 882 885 892 899 912 905 887 890 888 885 883 886 886 887 884 884 882 876 874 871 867 863 862 861 861 857 853 850 847 843 841 839 837 835
908 907 906 904 902 900 897 894 890 885 883 881 881 881 886 887 886 886 885 885 884 886 889 901 904 905 897 895 892 892 887 885 891 893 889 888 883 878 874 871 866 863 860 860 861 860 857 854 853 850 848 846 844 842
908 907 905 904 902 900 898 894 890 885 884 883 884 887 888 887 887 887 890 891 896 901 902 903 904 904 896 896 898 895 894 888 893 894 893 890 885 885 877 871 867 863 861 860 859 858 857 856 855 853 851 849 847 845
908 906 905 903 901 900 898 895 892 889 888 888 888 888 888 888 891 894 904 902 906 909 905 906 905 901 898 894 894 891 887 886 887 893 893 892 896 886 877 870 867 864 862 861 861 860 858 857 857 856 855 855 854 854
907 906 904 903 901 899 897 895 893 891 889 889 889 888 892 899 909 905 910 916 917 912 908 904 903 901 898 896 894 891 885 895 892 899 904 906 893 884 872 868 866 864 862 861 860 860 860 859 859 858 859 858 857 857
906 905 904 902 900 898 896 894 892 891 890 891 893 907 909 914 910 912 916 911 909 909 907 904 902 903 899 895 892 886 893 895 906 902 907 903 891 886 878 872 868 864 863 862 860 859 860 860 860 860 860 861 860 860
906 905 903 901 899 897 895 893 891 890 891 894 897 914 908 907 908 908 909 909 906 904 904 903 901 901 897 894 900 899 899 905 910 911 908 900 892 887 880 875 871 868 865 865 863 862 861 861 861 862 862 862 862 862
905 904 903 901 898 896 894 892 891 891 893 897 903 908 910 908 907 908 907 906 903 902 902 903 901 901 904 910 903 912 908 913 916 912 905 899 894 888 881 877 874 872 870 869 868 866 864 863 863 863 863 863 863 863
906 905 903 900 898 897 895 894 893 893 898 902 909 910 908 907 908 908 907 904 902 902 900 900 905 908 911 916 916 917 916 915 913 907 902 898 895 889 883 878 877 875 873 872 871 869 868 866 865 865 865 864 863 863
906 905 904 901 899 898 897 895 895 899 905 910 911 910 909 908 908 904 902 901 902 902 902 906 907 910 917 913 917 919 916 912 908 905 901 897 893 889 886 883 879 877 875 874 873 871 869 867 866 864 862 861 861 861
906 905 905 903 901 900 900 899 899 906 908 909 909 907 907 906 905 904 903 902 901 902 905 911 914 915 917 917 918 915 914 912 910 905 901 897 894 892 890 887 884 881 877 876 874 873 872 870 868 865 861 858 858 859
907 906 905 904 903 902 902 903 903 905 908 909 908 908 907 907 905 905 904 903 904 907 910 915 921 919 917 914 911 909 908 908 907 905 902 898 896 894 893 891 888 885 882 880 878 875 873 871 869 866 864 862 860 860
908 907 906 905 904 904 905 906 906 907 907 909 908 908 909 907 908 907 906 904 907 912 917 913 912 910 908 907 906 905 904 903 903 902 902 901 898 897 895 893 891 888 885 883 881 878 876 874 871 868 866 864 863 861
908 908 907 907 906 905 905 905 907 906 908 909 909 909 910 910 910 909 906 910 913 911 910 909 907 905 904 903 903 904 902 902 901 901 901 900 899 898 896 894 892 889 887 885 883 881 878 875 872 870 868 865 863 861
909 909 908 908 908 911 911 905 906 907 909 909 910 908 910 910 908 907 913 913 910 907 906 906 904 903 902 903 903 903 903 902 901 901 901 900 899 899 897 895 893 891 888 887 885 882 879 876 872 870 868 866 865 863
910 910 911 911 912 914 907 906 907 908 909 910 910 905 910 910 909 910 910 912 908 905 905 905 902 901 902 902 902 902 902 902 901 901 900 900 899 899 898 896 894 892 890 888 885 882 880 877 873 871 870 868 866 864
916 916 915 922 911 910 908 906 907 910 908 909 907 908 910 908 911 909 910 910 907 906 904 904 903 903 904 903 902 902 902 902 901 900 900 900 900 899 898 897 895 892 890 887 885 882 879 877 875 873 871 869 867 866
924 912 914 909 910 910 911 910 907 908 911 907 909 912 911 912 909 908 912 911 909 907 905 903 903 903 903 902 902 901 900 900 900 899 900 900 900 899 898 896 894 892 890 888 885 882 880 877 876 874 873 871 869 867
919 909 909 908 909 910 916 914 914 915 909 908 913 910 916 908 911 913 909 907 908 906 904 903 902 901 901 900 900 899 898 899 899 899 900 901 900 899 898 897 894 893 890 888 884 881 879 879 878 876 875 873 872 870
910 907 908 909 910 912 911 913 912 911 913 914 914 910 908 915 922 909 905 904 904 903 902 902 901 900 899 898 897 897 897 898 900 901 901 901 900 899 897 896 894 892 890 888 885 882 880 880 879 878 877 876 875 873
909 906 907 908 910 910 911 911 911 911 910 913 914 919 915 908 903 902 902 902 902 901 901 901 901 900 899 899 899 900 901 902 902 902 901 900 898 898 897 895 893 891 889 888 887 885 883 882 881 880 879 878 877 875
906 906 907 907 910 909 910 908 908 905 906 907 907 907 905 902 900 900 900 900 900 899 899 900 900 900 899 900 901 902 902 902 902 902 900 899 898 897 895 894 892 890 889 888 888 887 886 884 883 882 881 879 878 877
906 907 907 909 908 908 906 904 904 903 903 903 903 905 905 901 898 897 897 897 897 897 897 898 899 899 900 900 901 901 902 903 902 901 900 898 897 896 894 893 892 890 888 887 887 887 886 885 884 883 882 881 880 879
908 909 914 909 911 905 904 903 903 903 903 903 903 902 902 902 901 896 895 895 895 895 896 896 897 897 898 900 901 901 901 901 901 901 900 899 898 897 895 894 892 890 888 888 888 888 887 886 885 884 883 882 881 880
908 908 908 909 910 906 904 904 903 902 902 902 900 899 899 900 901 896 896 894 895 894 894 895 896 897 898 898 898 899 900 900 900 900 900 899 899 898 897 896 894 892 890 889 889 889 888 888 886 885 884 883 882 881